Torna al catalogo

STARLINK-31707

AttivoComunicazioniVLEO
NORAD 59736·PAYLOAD·🇺🇸 United States

Lanciato May 13, 2024 da Cape Canaveral Space Force Station

Loading…

Prossimi Passaggi (prossime 24 ore)

TLE

AggiornatoSource: CelesTrak SupGP

Epoca: Sep 14, 2026, 22:48 UTC

1 59736C 24090G   26257.95048611 -.00023678  00000+0 -85759-3 0  2572
2 59736  43.0015 194.5844 0001289 264.6073 177.4017 15.27590851    19

Traccia STARLINK-31707 in tempo reale con AllMySat

Download on the App Store